Milton, FL

3:03 AM CDT on March 25, 2017 (GMT -0500)
Whiting Field Naval Air Station (South)

Weather History for KNDZ - March, 2012

Change the Weather History Date:

Thursday, March 22, 2012

  Actual Average (KNSE) Record (KNSE)
Temperature  
Mean Temperature 72 °F -  
Max Temperature 79 °F 70 °F 88 °F (2017)
Min Temperature 68 °F 49 °F 33 °F (2016)
Cooling Degree Days 8    
Growing Degree Days 22 (Base 50)    
Moisture  
Dew Point 68 °F    
Average Humidity 86    
Maximum Humidity 96    
Minimum Humidity 71    
Precipitation  
Precipitation 0.00 in - - ()
Sea Level Pressure  
Sea Level Pressure 30.02 in    
Wind  
Wind Speed 11 mph (SE)    
Max Wind Speed 22 mph    
Max Gust Speed 28 mph    
Visibility 10 miles    
Events      
Averages and records for this station are not official NWS values.
T = Trace of Precipitation, MM = Missing Value Source: NWS Daily Summary

Daily Weather History Graph

Daily Weather History Graph

Search for Another Location

Airport or City:

Trip Planner

Search our weather history database for the weather conditions in past years. The results will help you decide how hot, cold, wet, or windy it might be!

Date:

Astronomy

Mar. 22, 2012 Rise Set
Actual Time 6:48 AM CDT 7:01 PM CDT
Civil Twilight 6:24 AM CDT 7:25 PM CDT
Nautical Twilight 5:56 AM CDT 7:53 PM CDT
Astronomical Twilight 5:28 AM CDT 8:21 PM CDT
Moon 6:31 AM CDT (3/22) 7:19 PM CDT (3/22)
Length of Visible Light 13h 00m
Length of Day
12h 12m
New Moon, 0% of the Moon is Illuminated
Mar 22
New Moon
Mar 30
First Quarter
Apr 6
Full
Apr 13
Last Quarter
Apr 21
New

Hourly Weather History & Observations

Time (CDT) Temp. Dew Point Humidity Pressure Visibility Wind Dir Wind Speed Gust Speed Precip Events Conditions
12:56 AM 68.0 °F 64.9 °F 90% 30.02 in 10.0 mi ESE 6.9 mph - N/A   Mostly Cloudy
1:56 AM 68.0 °F 66.0 °F 93% 30.00 in 10.0 mi ESE 9.2 mph - N/A   Partly Cloudy
2:07 AM 68.0 °F 66.2 °F 94% 30.04 in 10.0 mi ESE 6.9 mph - N/A   Mostly Cloudy
2:22 AM 68.0 °F 66.2 °F 94% 30.04 in 10.0 mi ESE 5.8 mph - N/A   Overcast
2:56 AM 68.0 °F 66.9 °F 96% 29.98 in 10.0 mi ESE 8.1 mph - N/A   Overcast
3:56 AM 68.0 °F 66.9 °F 96% 29.98 in 10.0 mi East 8.1 mph - N/A   Overcast
4:56 AM 69.1 °F 66.0 °F 90% 30.01 in 10.0 mi SE 8.1 mph - N/A   Overcast
5:09 AM 69.8 °F 66.2 °F 88% 30.05 in 10.0 mi SE 10.4 mph - N/A   Overcast
5:56 AM 70.0 °F 66.0 °F 87% 30.01 in 10.0 mi SE 9.2 mph - N/A   Overcast
6:56 AM 71.1 °F 66.9 °F 87% 30.01 in 10.0 mi SE 11.5 mph - N/A   Overcast
7:56 AM 72.0 °F 66.9 °F 84% 30.03 in 10.0 mi SE 11.5 mph 19.6 mph N/A   Overcast
8:56 AM 73.0 °F 68.0 °F 84% 30.03 in 10.0 mi SE 17.3 mph 27.6 mph N/A   Overcast
9:56 AM 75.0 °F 68.0 °F 79% 30.04 in 10.0 mi SSE 17.3 mph 24.2 mph N/A   Overcast
10:56 AM 75.9 °F 66.9 °F 74% 30.06 in 10.0 mi SSE 18.4 mph 27.6 mph N/A   Overcast
11:56 AM 77.0 °F 68.0 °F 74% 30.06 in 10.0 mi South 18.4 mph 27.6 mph N/A   Overcast
12:56 PM 77.0 °F 66.9 °F 71% 30.06 in 10.0 mi SSE 18.4 mph 27.6 mph N/A   Overcast
1:56 PM 77.0 °F 66.9 °F 71% 30.02 in 10.0 mi SSE 15.0 mph 27.6 mph N/A   Mostly Cloudy
2:56 PM 75.9 °F 66.9 °F 74% 30.00 in 10.0 mi SSE 17.3 mph 25.3 mph N/A   Mostly Cloudy
3:56 PM 75.0 °F 68.0 °F 79% 30.01 in 10.0 mi SSE 15.0 mph 23.0 mph N/A   Overcast
4:56 PM 73.9 °F 68.0 °F 82% 30.00 in 10.0 mi SSE 10.4 mph - N/A   Overcast
5:14 PM 73.4 °F 68.0 °F 83% 29.99 in 10.0 mi ESE 21.9 mph 26.5 mph N/A   Mostly Cloudy
5:56 PM 73.0 °F 68.0 °F 84% 30.01 in 10.0 mi SSE 9.2 mph - N/A   Overcast
6:26 PM 73.4 °F 68.0 °F 83% 30.03 in 10.0 mi ESE 10.4 mph - N/A   Overcast
6:56 PM 73.0 °F 68.0 °F 84% 30.00 in 10.0 mi SSE 10.4 mph - N/A   Overcast
7:27 PM 73.4 °F 68.0 °F 83% 30.05 in 10.0 mi SSE 9.2 mph - N/A   Overcast
7:49 PM 73.4 °F 68.0 °F 83% 30.05 in 10.0 mi SE 12.7 mph - N/A   Overcast
7:56 PM 72.0 °F 68.0 °F 87% 30.00 in 10.0 mi SE 12.7 mph - N/A   Overcast
8:46 PM 71.6 °F 68.0 °F 88% 30.04 in 10.0 mi SE 15.0 mph - N/A   Overcast
8:56 PM 72.0 °F 68.0 °F 87% 30.01 in 10.0 mi SSE 11.5 mph - N/A   Overcast
9:56 PM 72.0 °F 68.0 °F 87% 30.01 in 10.0 mi SSE 11.5 mph - N/A   Overcast
10:35 PM 71.6 °F 68.0 °F 88% 30.06 in 10.0 mi SE 11.5 mph - N/A   Overcast
10:56 PM 72.0 °F 69.1 °F 91% 30.01 in 10.0 mi SE 10.4 mph - N/A   Overcast
11:15 PM 71.6 °F 69.8 °F 94% 30.05 in 10.0 mi SE 10.4 mph - N/A   Overcast
11:41 PM 71.6 °F 69.8 °F 94% 30.04 in 10.0 mi SE 10.4 mph - N/A   Overcast
11:56 PM 72.0 °F 69.1 °F 91% 30.01 in 10.0 mi SE 8.1 mph - N/A   Overcast